Location: Bazugues
(43.4465°N, 0.3432°E)
Time: 20:25:27
(UTC+00:00)

Cosmos 1943 - Pass Details

Date: 12 January 2026
Orbit: 830 x 850 km, 71.0° (Epoch: 13 February)

Event Time Altitude Azimuth Distance (km) Brightness Sun altitude
Rises 17:26:47 0° 191° (S) 3,363 6.8 -7.7°
Reaches altitude 10° 17:29:14 10° 187° (S) 2,436 6.0 -8.2°
Maximum altitude 17:34:42 58° 109° (ESE) 974 3.3 -9.1°
Drops below altitude 10° 17:40:14 10° 32° (NNE) 2,465 5.2 -10.0°
Enters shadow 17:41:26 - 30° (NNE) 2,916 5.5 -10.2°
